User: anonymous   Login
Location: Falniów
(50.3639°N, 19.9642°E)
Time: 08:49:08
(UTC+00:00)
Language:

CENTAUR R/B - Orbit

View from above orbital plane
View from above orbital plane
View from above satellite
View from above satellite

Ground track
Ground track

The orbit is defined by the following mean orbital elements,

1 26906U          26075.60914558 +.00000000 +00000-0 +26486-3 0 00003
2 26906  63.4227  36.6233 0620193 341.5771  16.3657 13.45173364    06
Epoch (UTC): 16 March 2026 14:37:10
Eccentricity: 0.0620193
inclination: 63.4227°
perigee height: 627 km
apogee height: 1553 km
right ascension of ascending node: 36.6233°
argument of perigee: 341.5771°
revolutions per day: 13.45173364
mean anomaly at epoch: 16.3657°

The dashed part of the orbit path shows where the satellite is in the earth's shadow,  

DLR